Time,TemperatureF,DewpointF,PressureIn,WindDirection,WindDirectionDegrees,WindSpeedMPH,WindSpeedGustMPH,Humidity,HourlyPrecipIn,Conditions,Clouds,dailyrainin,SoftwareType,DateUTC
2013-12-10 00:22:00,17.0,1.0,30.42,South,178,0.0,1.0,48,0.00,,,0.00,,2013-12-10 07:22:00,
2013-12-10 00:42:00,16.0,0.0,30.42,South,178,0.0,1.0,49,0.00,,,0.00,,2013-12-10 07:42:00,
2013-12-10 00:52:00,16.0,1.0,30.41,South,176,0.0,5.0,50,0.00,,,0.00,,2013-12-10 07:52:00,
2013-12-10 01:12:00,15.0,1.0,30.40,SSE,157,0.0,1.0,52,0.00,,,0.00,,2013-12-10 08:12:00,
2013-12-10 01:22:00,14.0,0.0,30.40,SSE,167,0.0,2.0,53,0.00,,,0.00,,2013-12-10 08:22:00,
2013-12-10 01:42:00,13.0,-1.0,30.40,South,171,0.0,2.0,53,0.00,,,0.00,,2013-12-10 08:42:00,
2013-12-10 01:52:00,12.0,-2.0,30.40,South,173,0.0,2.0,53,0.00,,,0.00,,2013-12-10 08:52:00,
2013-12-10 02:11:00,12.0,-2.0,30.39,SE,146,1.0,5.0,53,0.00,,,0.00,,2013-12-10 09:11:00,
2013-12-10 02:22:00,12.0,-2.0,30.39,SSE,165,2.0,9.0,52,0.00,,,0.00,,2013-12-10 09:22:00,
2013-12-10 02:44:00,13.0,-1.0,30.39,South,182,0.0,6.0,53,0.00,,,0.00,,2013-12-10 09:44:00,
2013-12-10 02:54:00,12.0,-2.0,30.39,South,170,3.0,9.0,52,0.00,,,0.00,,2013-12-10 09:54:00,
2013-12-10 03:12:00,12.0,-1.0,30.39,SSE,167,0.0,1.0,54,0.00,,,0.00,,2013-12-10 10:12:00,
2013-12-10 03:22:00,12.0,-1.0,30.39,SSW,212,0.0,2.0,55,0.00,,,0.00,,2013-12-10 10:22:00,
2013-12-10 03:42:00,11.0,-2.0,30.38,SSW,207,1.0,6.0,56,0.00,,,0.00,,2013-12-10 10:42:00,
2013-12-10 03:53:00,11.0,0.0,30.37,SE,144,1.0,6.0,59,0.00,,,0.00,,2013-12-10 10:53:00,
2013-12-10 04:12:00,11.0,0.0,30.35,South,191,3.0,7.0,60,0.00,,,0.00,,2013-12-10 11:12:00,
2013-12-10 04:22:00,15.0,2.0,30.35,South,189,0.0,7.0,55,0.00,,,0.00,,2013-12-10 11:22:00,
2013-12-10 04:43:00,14.0,0.0,30.35,SE,134,1.0,4.0,54,0.00,,,0.00,,2013-12-10 11:43:00,
2013-12-10 04:53:00,14.0,1.0,30.35,SSE,161,0.0,5.0,56,0.00,,,0.00,,2013-12-10 11:53:00,
2013-12-10 05:12:00,14.0,0.0,30.36,WSW,251,0.0,5.0,54,0.00,,,0.00,,2013-12-10 12:12:00,
2013-12-10 05:22:00,14.0,0.0,30.35,South,173,2.0,6.0,53,0.00,,,0.00,,2013-12-10 12:22:00,
2013-12-10 05:42:00,14.0,0.0,30.35,South,181,1.0,3.0,54,0.00,,,0.00,,2013-12-10 12:42:00,
2013-12-10 05:52:00,14.0,1.0,30.35,SSE,152,0.0,4.0,56,0.00,,,0.00,,2013-12-10 12:52:00,
2013-12-10 06:12:00,14.0,1.0,30.35,SSW,195,1.0,2.0,55,0.00,,,0.00,,2013-12-10 13:12:00,
2013-12-10 06:22:00,14.0,1.0,30.35,SSW,197,0.0,2.0,55,0.00,,,0.00,,2013-12-10 13:22:00,
2013-12-10 06:42:00,14.0,2.0,30.35,South,182,2.0,5.0,57,0.00,,,0.00,,2013-12-10 13:42:00,
2013-12-10 06:52:00,14.0,2.0,30.35,South,178,0.0,4.0,57,0.00,,,0.00,,2013-12-10 13:52:00,
2013-12-10 07:11:00,15.0,2.0,30.33,South,176,1.0,5.0,56,0.00,,,0.00,,2013-12-10 14:11:00,
2013-12-10 07:22:00,15.0,3.0,30.32,South,170,3.0,6.0,57,0.00,,,0.00,,2013-12-10 14:22:00,
2013-12-10 07:42:00,16.0,3.0,30.30,South,169,0.0,5.0,56,0.00,,,0.00,,2013-12-10 14:42:00,
2013-12-10 07:52:00,17.0,3.0,30.29,SSW,196,0.0,3.0,53,0.00,,,0.00,,2013-12-10 14:52:00,
2013-12-10 08:11:00,17.0,4.0,30.29,South,174,0.0,2.0,55,0.00,,,0.00,,2013-12-10 15:11:00,
2013-12-10 08:22:00,18.0,5.0,30.28,SSW,203,1.0,7.0,55,0.00,,,0.00,,2013-12-10 15:22:00,
2013-12-10 08:43:00,20.0,6.0,30.27,SE,138,2.0,5.0,53,0.00,,,0.00,,2013-12-10 15:43:00,
2013-12-10 10:52:00,43.0,15.0,30.20,North,355,5.0,7.0,32,0.03,,,0.03,,2013-12-10 17:52:00,
2013-12-10 11:11:00,43.0,13.0,30.20,NNE,25,1.0,3.0,29,0.04,,,0.04,,2013-12-10 18:11:00,
2013-12-10 11:22:00,44.0,13.0,30.18,North,5,1.0,4.0,28,0.03,,,0.04,,2013-12-10 18:22:00,
2013-12-10 11:42:00,45.0,14.0,30.17,NNE,17,2.0,5.0,28,0.03,,,0.05,,2013-12-10 18:42:00,
2013-12-10 11:52:00,45.0,14.0,30.16,NW,324,5.0,8.0,28,0.03,,,0.06,,2013-12-10 18:52:00,
2013-12-10 12:11:00,45.0,14.0,30.14,NNW,329,1.0,13.0,28,0.02,,,0.06,,2013-12-10 19:11:00,
2013-12-10 12:22:00,45.0,13.0,30.12,North,5,3.0,9.0,27,0.02,,,0.06,,2013-12-10 19:22:00,
2013-12-10 12:42:00,45.0,14.0,30.12,NNE,28,5.0,11.0,28,0.02,,,0.07,,2013-12-10 19:42:00,
2013-12-10 12:52:00,45.0,14.0,30.12,NNW,342,2.0,7.0,28,0.02,,,0.08,,2013-12-10 19:52:00,
2013-12-10 13:11:00,45.0,15.0,30.11,North,10,4.0,7.0,29,0.02,,,0.08,,2013-12-10 20:11:00,
2013-12-10 13:22:00,45.0,15.0,30.11,North,5,4.0,13.0,29,0.02,,,0.08,,2013-12-10 20:22:00,
2013-12-10 13:42:00,45.0,15.0,30.11,NNW,327,5.0,8.0,29,0.01,,,0.08,,2013-12-10 20:42:00,
2013-12-10 13:52:00,45.0,14.0,30.10,NNW,346,1.0,4.0,28,0.00,,,0.08,,2013-12-10 20:52:00,
2013-12-10 14:12:00,45.0,14.0,30.10,NNW,345,3.0,8.0,28,0.01,,,0.09,,2013-12-10 21:12:00,
2013-12-10 14:22:00,45.0,15.0,30.10,NNW,327,4.0,8.0,29,0.01,,,0.09,,2013-12-10 21:22:00,
2013-12-10 14:43:00,45.0,14.0,30.10,NNW,342,4.0,12.0,28,0.01,,,0.09,,2013-12-10 21:43:00,
2013-12-10 14:54:00,45.0,14.0,30.10,NNE,12,8.0,11.0,28,0.00,,,0.09,,2013-12-10 21:54:00,
2013-12-10 15:13:00,44.0,14.0,30.10,North,5,7.0,14.0,29,0.00,,,0.09,,2013-12-10 22:13:00,
2013-12-10 15:23:00,44.0,15.0,30.11,NNE,30,5.0,11.0,30,0.00,,,0.09,,2013-12-10 22:23:00,
2013-12-10 15:43:00,43.0,14.0,30.11,NNE,24,6.0,11.0,31,0.00,,,0.09,,2013-12-10 22:43:00,
2013-12-10 15:52:00,43.0,15.0,30.11,NNE,32,4.0,13.0,32,0.00,,,0.09,,2013-12-10 22:52:00,
2013-12-10 16:12:00,43.0,17.0,30.12,North,5,3.0,8.0,34,0.00,,,0.09,,2013-12-10 23:12:00,
2013-12-10 16:22:00,43.0,15.0,30.12,NNE,27,5.0,10.0,32,0.00,,,0.09,,2013-12-10 23:22:00,
2013-12-10 16:42:00,41.0,17.0,30.14,ENE,60,0.0,5.0,37,0.01,,,0.10,,2013-12-10 23:42:00,
2013-12-10 16:53:00,40.0,18.0,30.13,ESE,109,5.0,7.0,40,0.01,,,0.10,,2013-12-10 23:53:00,
2013-12-10 17:11:00,40.0,16.0,30.13,NNW,342,0.0,4.0,38,0.01,,,0.10,,2013-12-11 00:11:00,
2013-12-10 17:22:00,38.0,16.0,30.13,ENE,71,1.0,3.0,41,0.01,,,0.10,,2013-12-11 00:22:00,
2013-12-10 17:42:00,37.0,17.0,30.13,ESE,111,2.0,5.0,43,0.00,,,0.10,,2013-12-11 00:42:00,
2013-12-10 17:52:00,36.0,16.0,30.13,ESE,112,0.0,2.0,43,0.00,,,0.10,,2013-12-11 00:52:00,
2013-12-10 18:11:00,39.0,15.0,30.14,East,85,2.0,5.0,37,0.00,,,0.10,,2013-12-11 01:11:00,
2013-12-10 18:22:00,39.0,15.0,30.15,NNE,31,2.0,7.0,37,0.00,,,0.10,,2013-12-11 01:22:00,
2013-12-10 18:42:00,36.0,17.0,30.16,ESE,123,6.0,13.0,45,0.00,,,0.10,,2013-12-11 01:42:00,
2013-12-10 18:52:00,35.0,17.0,30.19,NE,34,1.0,13.0,48,0.00,,,0.10,,2013-12-11 01:52:00,
2013-12-10 19:12:00,34.0,17.0,30.19,SE,130,5.0,14.0,50,0.00,,,0.10,,2013-12-11 02:12:00,
2013-12-10 19:22:00,33.0,16.0,30.21,ESE,116,4.0,12.0,49,0.00,,,0.10,,2013-12-11 02:22:00,
2013-12-10 19:42:00,33.0,17.0,30.22,ESE,120,1.0,5.0,51,0.00,,,0.10,,2013-12-11 02:42:00,
2013-12-10 19:52:00,32.0,16.0,30.22,ESE,120,1.0,5.0,52,0.00,,,0.10,,2013-12-11 02:52:00,
2013-12-10 20:11:00,32.0,18.0,30.23,SSE,153,3.0,5.0,55,0.00,,,0.10,,2013-12-11 03:11:00,
2013-12-10 20:22:00,32.0,17.0,30.24,SE,134,2.0,7.0,54,0.00,,,0.10,,2013-12-11 03:22:00,
2013-12-10 20:43:00,31.0,17.0,30.26,SE,140,1.0,4.0,55,0.00,,,0.10,,2013-12-11 03:43:00,
2013-12-10 20:54:00,30.0,17.0,30.26,ESE,119,0.0,2.0,57,0.00,,,0.10,,2013-12-11 03:54:00,
2013-12-10 21:13:00,29.0,16.0,30.27,ESE,120,1.0,3.0,58,0.00,,,0.10,,2013-12-11 04:13:00,
2013-12-10 21:23:00,29.0,17.0,30.28,ESE,122,0.0,3.0,60,0.00,,,0.10,,2013-12-11 04:23:00,
2013-12-10 21:43:00,28.0,16.0,30.28,SE,126,1.0,3.0,59,0.00,,,0.10,,2013-12-11 04:43:00,
2013-12-10 21:52:00,28.0,16.0,30.29,East,101,0.0,2.0,60,0.00,,,0.10,,2013-12-11 04:52:00,
2013-12-10 22:22:00,28.0,15.0,30.30,SE,124,4.0,8.0,58,0.00,,,0.10,,2013-12-11 05:22:00,
2013-12-10 22:43:00,28.0,15.0,30.31,ESE,115,3.0,9.0,58,0.00,,,0.10,,2013-12-11 05:43:00,
2013-12-10 22:53:00,28.0,15.0,30.32,ESE,116,4.0,11.0,58,0.00,,,0.10,,2013-12-11 05:53:00,
2013-12-10 23:12:00,28.0,15.0,30.33,ESE,112,3.0,10.0,58,0.00,,,0.10,,2013-12-11 06:12:00,
2013-12-10 23:22:00,27.0,15.0,30.35,ESE,123,1.0,8.0,59,0.00,,,0.10,,2013-12-11 06:22:00,
2013-12-10 23:42:00,26.0,14.0,30.35,ESE,108,2.0,10.0,59,0.00,,,0.10,,2013-12-11 06:42:00,
2013-12-10 23:52:00,26.0,14.0,30.37,East,95,0.0,7.0,59,0.00,,,0.10,,2013-12-11 06:52:00,